NOAA 16 DEB, 41133

Orbit data source: Space-Track

NOAA 16 DEB, 41133 is space debris in SSO originally from a launch on Thu, 21 Sep 2000 UTC launched from the Air Force Western Test Range (AFWTR). Debris objects in space refer to the collection of defunct objects orbiting the Earth. Examples of debris include non-operational satellites, rocket bodies, and fragments generated from explosions, collisions, or faulty payload assembly.

Loading next visibility...
Identifier
41133, 2000-055BQ
Orbit
SSO
Country
Flag of USUS
Related business
Manufacturer
Unknown
Mission
Spacecraft
Bus & Motor
Unknown
Mass
Unknown
Launch date (UTC)
2000-09-21 (25 years ago)
Launch vehicle
Unknown
Launch site
Air Force Western Test Range (AFWTR)
Object type
Payload
Rocket body
Debris
Shape & HBR
Unknown shape, 0.1 m
Radar Cross Section
Small (<0.1 m²)

Expand to show TLE details & history
Last TLE update: 14 hours ago

TLE from 14 hours ago
0 NOAA 16 DEB
1 41133U 00055BQ  25290.86430101  .00022287  00000-0  50900-2 0  9990
2 41133  98.9287  84.4136 0011904  63.5858 296.6557 14.55687501511068
Epoch: 2025-10-17T20:44Z
TLE epoch observation values (Epoch: 2025-10-17T20:44:35.607Z)
Latitude
-0.00008°
Longitude
106.6617°
Altitude
706.312 km
Speed
7.505 km/s
True Right ascension
05h 37m 39s
True Declination
0° 00' 00"
Sunlit
Object was in full shadow at epoch
Visualization orbit readout
Latitude
Unknown
Longitude
Unknown
Altitude
Unknown
Speed
Unknown
Apparent Right ascension
Unknown
Apparent Declination
Unknown
Sunlit
N/A
Visualization observer readout
Local Sidereal Time
05:16:34
Azimuth
Unknown
Elevation
Unknown
Doppler factor
Unknown
Orbital elements
Apogee altitude
712.686 km
Perigee altitude
695.824 km
Semi-major axis
7,082.392 km
Eccentricity
0.00119
Inclination
98.9287°
RAAN
84.4136°
Arg. of periapsis
63.5858°
True anomaly
296.53371°
Mean anomaly
296.6557°
Eccentric anomaly
296.59471°
Mean motion
3.64144 °/min
Orbital period
98.86 mins
BSTAR
0.00509
Loading maneuver chart data...
Computing Atmospheric mass density...

Documentation

Showing up to 5 results
|